STARLINK-2427, 47837

Orbit data source: Space-Track

STARLINK-2427, 47837 is a payload satellite owned by SpaceX/Seattle (US) in LEO that was launched on Thu, 11 Mar 2021 UTC via an FALCON 9 launch vehicle from the Air Force Eastern Test Range (AFETR). Payload-class satellites include a variety of spacecraft equipped with specific instruments for various scientific and technological missions. These include communications satellites like Starlink; space stations such as the ISS; scientific satellites like the Hubble; Earth observation satellites from companies like Planet Labs, Umbra, and HawkEye 360; GPS; miniature CubeSats for education and research; and military/defense satellites.

Loading next visibility...
Identifier
47837, 2021-018BC
Orbit
LEO
Country
Flag of USUS
Related business
Manufacturer
SpaceX/Seattle
Mission
Operational Commercial Communications
Bus & Motor
STARLINK, Unknown motor
Mass
260 kg wet, ~248 kg dry
Launch date (UTC)
2021-03-11 (5 years ago)
Launch vehicle
FALCON 9
Launch site
Air Force Eastern Test Range (AFETR)
Object type
Payload
Rocket body
Debris
Shape & HBR
Box + 1 Pan, 10.1 m
Radar Cross Section
13.562 m², Large (>1 m²)

Expand to show TLE details & history
Last TLE update: 10 hours ago

TLE from 10 hours ago
0 STARLINK-2427
1 47837U 21018BC  26035.38542859  .00001515  00000-0  12059-3 0  9993
2 47837  53.0556  21.1267 0001577  96.6951 263.4217 15.06408370271863
Epoch: 2026-02-04T09:15Z
TLE epoch observation values (Epoch: 2026-02-04T09:15:01.030Z)
Latitude
-0.00005°
Longitude
107.81961°
Altitude
548.19 km
Speed
7.589 km/s
True Right ascension
01h 24m 30s
True Declination
0° 00' 00"
Sunlit
Object was in daylight at epoch
Visualization orbit readout
Latitude
Unknown
Longitude
Unknown
Altitude
Unknown
Speed
Unknown
Apparent Right ascension
Unknown
Apparent Declination
Unknown
Sunlit
N/A
Visualization observer readout
Local Sidereal Time
21:26:23
Azimuth
Unknown
Elevation
Unknown
Doppler factor
Unknown
Orbital elements
Apogee altitude
548.549 km
Perigee altitude
546.364 km
Semi-major axis
6,925.593 km
Eccentricity
0.00016
Inclination
53.0556°
RAAN
21.1267°
Arg. of periapsis
96.6951°
True anomaly
263.40375°
Mean anomaly
263.4217°
Eccentric anomaly
263.41272°
Mean motion
3.7658 °/min
Orbital period
95.6 mins
BSTAR
0.00012059
Loading maneuver chart data...
Computing Atmospheric mass density...
Loading historical data...
Loading historical data...
Loading historical data...
Loading historical data...
Loading historical data...
Loading historical data...
Loading historical data...

Documentation

Showing up to 5 results
|